TimeCDT,TemperatureF,Dew PointF,Humidity,Sea Level PressureIn,VisibilityMPH,Wind Direction,Wind SpeedMPH,Gust SpeedMPH,PrecipitationIn,Events,Conditions,WindDirDegrees,DateUTC
12:17 AM,23.0,17.6,80,29.94,10.0,North,13.8,19.6,N/A,,Overcast,350,2013-03-11 05:17:00
12:37 AM,23.0,17.6,80,29.93,10.0,North,15.0,-,N/A,,Overcast,350,2013-03-11 05:37:00
12:56 AM,21.2,17.6,86,29.92,10.0,North,13.8,20.7,N/A,,Overcast,350,2013-03-11 05:56:00
1:17 AM,23.0,17.6,80,29.91,10.0,North,15.0,-,N/A,,Overcast,360,2013-03-11 06:17:00
1:37 AM,23.0,17.6,80,29.91,10.0,North,13.8,20.7,N/A,,Overcast,360,2013-03-11 06:37:00
1:57 AM,23.0,17.6,80,29.91,10.0,North,13.8,19.6,N/A,,Overcast,350,2013-03-11 06:57:00
2:17 AM,23.0,17.6,80,29.91,10.0,North,15.0,-,N/A,,Overcast,350,2013-03-11 07:17:00
2:36 AM,23.0,17.6,80,29.91,10.0,North,12.7,20.7,N/A,,Overcast,10,2013-03-11 07:36:00
2:57 AM,23.0,17.6,80,29.92,10.0,North,11.5,16.1,N/A,,Overcast,360,2013-03-11 07:57:00
3:17 AM,23.0,17.6,80,29.92,10.0,NNW,12.7,17.3,N/A,,Overcast,340,2013-03-11 08:17:00
3:36 AM,23.0,17.6,80,29.91,10.0,NNW,10.4,-,N/A,,Overcast,340,2013-03-11 08:36:00
3:57 AM,21.2,15.8,80,29.90,10.0,NNW,10.4,-,N/A,,Overcast,330,2013-03-11 08:57:00
4:17 AM,21.2,17.6,86,29.89,10.0,North,10.4,-,N/A,,Overcast,360,2013-03-11 09:17:00
4:36 AM,21.2,15.8,80,29.89,10.0,NNW,9.2,-,N/A,,Overcast,340,2013-03-11 09:36:00
4:57 AM,21.2,15.8,80,29.89,10.0,NNW,9.2,-,N/A,,Overcast,340,2013-03-11 09:57:00
5:17 AM,21.2,15.8,80,29.88,10.0,NNW,11.5,16.1,N/A,,Overcast,330,2013-03-11 10:17:00
5:37 AM,21.2,15.8,80,29.88,10.0,NNW,12.7,-,N/A,,Overcast,330,2013-03-11 10:37:00
5:57 AM,21.2,14.0,74,29.88,10.0,NNW,13.8,17.3,N/A,,Overcast,330,2013-03-11 10:57:00
6:17 AM,19.4,14.0,80,29.87,10.0,NNW,12.7,-,N/A,,Overcast,330,2013-03-11 11:17:00
6:37 AM,21.2,14.0,74,29.87,10.0,NNW,9.2,-,N/A,,Overcast,330,2013-03-11 11:37:00
6:57 AM,19.4,14.0,80,29.88,10.0,NNW,10.4,-,N/A,,Overcast,330,2013-03-11 11:57:00
7:17 AM,19.4,14.0,80,29.88,10.0,NW,9.2,-,N/A,,Overcast,320,2013-03-11 12:17:00
7:37 AM,19.4,14.0,80,29.89,10.0,NW,9.2,-,N/A,,Overcast,310,2013-03-11 12:37:00
7:57 AM,17.6,12.2,79,29.89,10.0,NW,10.4,16.1,N/A,,Scattered Clouds,310,2013-03-11 12:57:00
8:16 AM,17.6,12.2,79,29.89,10.0,NW,9.2,-,N/A,,Clear,320,2013-03-11 13:16:00
8:37 AM,17.6,12.2,79,29.89,10.0,NW,11.5,-,N/A,,Clear,320,2013-03-11 13:37:00
8:57 AM,17.6,12.2,79,29.88,10.0,NNW,10.4,-,N/A,,Clear,330,2013-03-11 13:57:00
9:16 AM,19.4,12.2,74,29.88,10.0,NNW,11.5,-,N/A,,Clear,330,2013-03-11 14:16:00
9:37 AM,19.4,14.0,80,29.88,10.0,NNW,8.1,-,N/A,,Clear,330,2013-03-11 14:37:00
9:57 AM,21.2,14.0,74,29.88,10.0,NNW,9.2,-,N/A,,Clear,330,2013-03-11 14:57:00
10:16 AM,23.0,15.8,74,29.87,10.0,NNW,9.2,-,N/A,,Clear,340,2013-03-11 15:16:00
10:37 AM,23.0,15.8,74,29.88,10.0,NNW,9.2,-,N/A,,Clear,330,2013-03-11 15:37:00
10:56 AM,23.0,15.8,74,29.88,10.0,NW,10.4,-,N/A,,Clear,320,2013-03-11 15:56:00
11:17 AM,23.0,15.8,74,29.87,10.0,NNW,9.2,-,N/A,,Clear,340,2013-03-11 16:17:00
11:37 AM,24.8,17.6,74,29.87,10.0,NNW,10.4,-,N/A,,Clear,340,2013-03-11 16:37:00
11:57 AM,26.6,17.6,69,29.86,10.0,North,10.4,-,N/A,,Clear,350,2013-03-11 16:57:00
12:17 PM,26.6,17.6,69,29.86,10.0,NNW,10.4,-,N/A,,Scattered Clouds,330,2013-03-11 17:17:00
12:37 PM,26.6,17.6,69,29.85,10.0,NNW,10.4,16.1,N/A,,Scattered Clouds,330,2013-03-11 17:37:00
12:57 PM,26.6,17.6,69,29.85,10.0,NNW,10.4,-,N/A,,Mostly Cloudy,330,2013-03-11 17:57:00
1:17 PM,28.4,19.4,69,29.85,10.0,NW,10.4,-,N/A,,Mostly Cloudy,320,2013-03-11 18:17:00
1:37 PM,28.4,19.4,69,29.84,10.0,NW,9.2,-,N/A,,Scattered Clouds,310,2013-03-11 18:37:00
1:57 PM,28.4,19.4,69,29.83,10.0,NW,10.4,16.1,N/A,,Scattered Clouds,310,2013-03-11 18:57:00
2:17 PM,30.2,19.4,64,29.83,10.0,WNW,15.0,-,N/A,,Clear,300,2013-03-11 19:17:00
2:37 PM,30.2,19.4,64,29.83,10.0,NW,12.7,-,N/A,,Clear,310,2013-03-11 19:37:00
2:57 PM,30.2,19.4,64,29.83,10.0,WNW,11.5,18.4,N/A,,Clear,300,2013-03-11 19:57:00
3:17 PM,30.2,21.2,69,29.83,10.0,NW,11.5,-,N/A,,Mostly Cloudy,310,2013-03-11 20:17:00
3:36 PM,30.2,19.4,64,29.82,10.0,NW,9.2,-,N/A,,Overcast,320,2013-03-11 20:36:00
3:57 PM,30.2,19.4,64,29.82,10.0,NNW,9.2,-,N/A,,Overcast,330,2013-03-11 20:57:00
4:17 PM,30.2,19.4,64,29.82,10.0,NNW,9.2,-,N/A,,Overcast,330,2013-03-11 21:17:00
4:36 PM,32.0,19.4,60,29.83,10.0,NNW,9.2,-,N/A,,Overcast,330,2013-03-11 21:36:00
4:57 PM,32.0,19.4,60,29.83,10.0,NW,9.2,-,N/A,,Scattered Clouds,320,2013-03-11 21:57:00
5:17 PM,32.0,19.4,60,29.82,10.0,NW,9.2,-,N/A,,Clear,310,2013-03-11 22:17:00
5:37 PM,30.2,19.4,64,29.82,10.0,NNW,9.2,-,N/A,,Mostly Cloudy,330,2013-03-11 22:37:00
6:16 PM,30.2,19.4,64,29.84,10.0,WNW,10.4,-,N/A,,Clear,290,2013-03-11 23:16:00
6:37 PM,32.0,19.4,60,29.85,10.0,WNW,11.5,-,N/A,,Clear,300,2013-03-11 23:37:00
6:57 PM,30.2,19.4,64,29.86,10.0,WNW,10.4,-,N/A,,Clear,300,2013-03-11 23:57:00
7:16 PM,30.2,19.4,64,29.86,10.0,WNW,10.4,-,N/A,,Clear,290,2013-03-12 00:16:00
7:37 PM,30.2,19.4,64,29.86,10.0,WNW,5.8,-,N/A,,Mostly Cloudy,300,2013-03-12 00:37:00
7:56 PM,30.2,19.4,64,29.87,10.0,WNW,5.8,-,N/A,,Mostly Cloudy,300,2013-03-12 00:56:00
8:17 PM,30.2,19.4,64,29.88,10.0,WNW,11.5,-,N/A,,Scattered Clouds,300,2013-03-12 01:17:00
8:37 PM,28.4,21.2,74,29.89,10.0,WNW,8.1,-,N/A,,Scattered Clouds,300,2013-03-12 01:37:00
8:56 PM,28.4,21.2,74,29.89,10.0,NW,8.1,-,N/A,,Clear,310,2013-03-12 01:56:00
9:17 PM,28.4,19.4,69,29.90,10.0,NW,10.4,-,N/A,,Clear,310,2013-03-12 02:17:00
9:37 PM,28.4,19.4,69,29.90,10.0,NNW,13.8,19.6,N/A,,Scattered Clouds,330,2013-03-12 02:37:00
9:56 PM,30.2,21.2,69,29.91,10.0,NNW,11.5,-,N/A,,Overcast,340,2013-03-12 02:56:00
10:17 PM,30.2,21.2,69,29.92,10.0,NNW,16.1,23.0,N/A,,Overcast,330,2013-03-12 03:17:00
10:37 PM,30.2,23.0,75,29.92,10.0,NNW,11.5,18.4,N/A,,Overcast,340,2013-03-12 03:37:00
10:56 PM,30.2,21.2,69,29.92,10.0,North,13.8,-,N/A,,Overcast,350,2013-03-12 03:56:00
11:17 PM,30.2,23.0,75,29.91,10.0,North,10.4,-,N/A,,Overcast,360,2013-03-12 04:17:00
11:37 PM,30.2,23.0,75,29.92,10.0,NNW,6.9,-,N/A,,Overcast,340,2013-03-12 04:37:00
11:56 PM,30.2,23.0,75,29.92,10.0,WNW,8.1,-,N/A,,Scattered Clouds,300,2013-03-12 04:56:00